When you browse on this site, cookies collect data to enhance your experience and personalize the content and advertising you see.
Visit our Privacy Policy to learn more. By continuing to use the site, you agree to this use of cookies and data.
  • In Belgium
  • List of Countries
  • For 7 days
  • Water Temperature
  • Satellite Maps
  • Weather Map
  • Weather Widgets
  • user-avatar
    Login

    Hourly Weather Mostar

    Today, 22 February, Friday

    Time Temperature Precipitation Wind Pressure Humidity
    00:00 +9°C° 0 mm 2 mps 761 mmHg 66%
    01:00 +8°C° 0 mm 2 mps 761 mmHg 64%
    02:00 +8°C° 0 mm 2 mps 761 mmHg 64%
    03:00 +8°C° 0 mm 2 mps 760 mmHg 64%
    04:00 +8°C° 0 mm 2 mps 760 mmHg 64%
    05:00 +8°C° 0 mm 2 mps 760 mmHg 65%
    06:00 +9°C° 0 mm 2 mps 759 mmHg 66%
    07:00 +10°C° 0 mm 1 mps 759 mmHg 66%
    08:00 +11°C° 0 mm 1 mps 759 mmHg 62%
    09:00 +13°C° 0 mm 1 mps 758 mmHg 58%
    10:00 +14°C° 0 mm 1 mps 758 mmHg 53%
    11:00 +15°C° 0 mm 2 mps 758 mmHg 52%
    12:00 +14°C° 0 mm 3 mps 758 mmHg 51%
    13:00 +15°C° 0 mm 4 mps 758 mmHg 51%
    14:00 +15°C° 0 mm 4 mps 757 mmHg 52%
    15:00 +14°C° 0 mm 4 mps 757 mmHg 54%
    16:00 +13°C° 0 mm 5 mps 757 mmHg 56%
    17:00 +12°C° 0 mm 4 mps 757 mmHg 60%
    18:00 +11°C° 0 mm 4 mps 757 mmHg 64%
    19:00 +10°C° 0 mm 3 mps 758 mmHg 67%
    20:00 +8°C° 0 mm 4 mps 759 mmHg 66%
    21:00 +7°C° 0 mm 5 mps 759 mmHg 64%
    22:00 +7°C° 0 mm 5 mps 760 mmHg 62%
    23:00 +4°C° 0 mm 6 mps 761 mmHg 57%

    Tomorrow, 23 February, Saturday

    Time Temperature Precipitation Wind Pressure Humidity
    00:00 +2°C° 0 mm 6 mps 761 mmHg 51%
    01:00 -1°C° 0 mm 7 mps 762 mmHg 46%
    02:00 -2°C° 0 mm 8 mps 762 mmHg 45%
    03:00 -5°C° 0 mm 9 mps 762 mmHg 44%
    04:00 -7°C° 0 mm 10 mps 762 mmHg 44%
    05:00 -7°C° 0 mm 12 mps 762 mmHg 42%
    06:00 -8°C° 0 mm 15 mps 762 mmHg 40%
    07:00 -8°C° 0 mm 17 mps 762 mmHg 38%
    08:00 -7°C° 0 mm 17 mps 762 mmHg 37%
    09:00 -4°C° 0 mm 16 mps 762 mmHg 36%
    10:00 -3°C° 0 mm 16 mps 762 mmHg 35%
    11:00 -2°C° 0 mm 16 mps 762 mmHg 35%
    12:00 -1°C° 0 mm 15 mps 762 mmHg 34%
    13:00 0°C° 0 mm 14 mps 762 mmHg 34%
    14:00 0°C° 0 mm 14 mps 763 mmHg 33%
    15:00 0°C° 0 mm 13 mps 763 mmHg 33%
    16:00 0°C° 0 mm 13 mps 763 mmHg 33%
    17:00 -1°C° 0 mm 12 mps 764 mmHg 34%
    18:00 -2°C° 0 mm 10 mps 764 mmHg 35%
    19:00 -3°C° 0 mm 9 mps 765 mmHg 36%
    20:00 -2°C° 0 mm 8 mps 765 mmHg 37%
    21:00 -2°C° 0 mm 7 mps 766 mmHg 39%
    22:00 -2°C° 0 mm 6 mps 766 mmHg 40%
    23:00 -2°C° 0 mm 6 mps 766 mmHg 41%

    Day after tomorrow, 24 February, Sunday

    Time Temperature Precipitation Wind Pressure Humidity
    00:00 -2°C° 0 mm 5 mps 766 mmHg 42%
    01:00 -2°C° 0 mm 5 mps 766 mmHg 42%
    02:00 -2°C° 0 mm 5 mps 766 mmHg 42%
    03:00 -2°C° 0 mm 5 mps 766 mmHg 43%
    04:00 -2°C° 0 mm 5 mps 766 mmHg 43%
    05:00 -2°C° 0 mm 5 mps 766 mmHg 43%
    06:00 -2°C° 0 mm 5 mps 766 mmHg 43%
    07:00 -2°C° 0 mm 4 mps 766 mmHg 42%
    08:00 0°C° 0 mm 5 mps 766 mmHg 38%
    09:00 +1°C° 0 mm 5 mps 766 mmHg 34%
    10:00 +3°C° 0 mm 5 mps 767 mmHg 29%
    11:00 +5°C° 0 mm 5 mps 766 mmHg 29%
    12:00 +6°C° 0 mm 5 mps 766 mmHg 29%
    13:00 +7°C° 0 mm 5 mps 766 mmHg 28%
    14:00 +7°C° 0 mm 5 mps 766 mmHg 31%
    15:00 +7°C° 0 mm 5 mps 766 mmHg 33%
    16:00 +6°C° 0 mm 5 mps 766 mmHg 35%
    17:00 +5°C° 0 mm 4 mps 766 mmHg 40%
    18:00 +3°C° 0 mm 4 mps 767 mmHg 44%
    19:00 +1°C° 0 mm 4 mps 767 mmHg 48%
    20:00 0°C° 0 mm 4 mps 767 mmHg 48%
    21:00 0°C° 0 mm 4 mps 768 mmHg 48%
    22:00 0°C° 0 mm 4 mps 768 mmHg 49%
    23:00 0°C° 0 mm 4 mps 768 mmHg 49%

    25 February, Monday

    Time Temperature Precipitation Wind Pressure Humidity
    00:00 -1°C° 0 mm 4 mps 768 mmHg 49%
    01:00 -1°C° 0 mm 4 mps 768 mmHg 49%
    02:00 0°C° 0 mm 3 mps 768 mmHg 49%
    03:00 0°C° 0 mm 3 mps 768 mmHg 48%
    04:00 0°C° 0 mm 3 mps 767 mmHg 48%
    05:00 -1°C° 0 mm 4 mps 767 mmHg 47%
    06:00 0°C° 0 mm 4 mps 767 mmHg 47%
    07:00 0°C° 0 mm 4 mps 767 mmHg 47%
    08:00 +3°C° 0 mm 4 mps 767 mmHg 43%
    09:00 +5°C° 0 mm 4 mps 767 mmHg 39%
    10:00 +7°C° 0 mm 5 mps 767 mmHg 35%
    11:00 +8°C° 0 mm 4 mps 767 mmHg 35%
    12:00 +10°C° 0 mm 4 mps 766 mmHg 34%
    13:00 +11°C° 0 mm 4 mps 766 mmHg 34%
    14:00 +11°C° 0 mm 4 mps 766 mmHg 36%
    15:00 +11°C° 0 mm 4 mps 766 mmHg 38%
    16:00 +10°C° 0 mm 4 mps 765 mmHg 40%
    17:00 +8°C° 0 mm 4 mps 765 mmHg 44%
    18:00 +7°C° 0 mm 3 mps 766 mmHg 48%
    19:00 +4°C° 0 mm 3 mps 766 mmHg 51%
    20:00 +4°C° 0 mm 3 mps 766 mmHg 52%
    21:00 +4°C° 0 mm 3 mps 766 mmHg 52%
    22:00 +3°C° 0 mm 3 mps 766 mmHg 52%
    23:00 +3°C° 0 mm 3 mps 766 mmHg 52%

    26 February, Tuesday

    Time Temperature Precipitation Wind Pressure Humidity
    00:00 +3°C° 0 mm 3 mps 765 mmHg 53%
    01:00 +3°C° 0 mm 3 mps 765 mmHg 53%
    02:00 +4°C° 0 mm 3 mps 765 mmHg 54%
    03:00 +4°C° 0 mm 3 mps 765 mmHg 55%
    04:00 +4°C° 0 mm 3 mps 765 mmHg 56%
    05:00 +4°C° 0 mm 3 mps 765 mmHg 57%
    06:00 +4°C° 0 mm 3 mps 765 mmHg 57%
    07:00 +4°C° 0 mm 3 mps 765 mmHg 58%
    08:00 +7°C° 0 mm 3 mps 765 mmHg 52%
    09:00 +9°C° 0 mm 3 mps 764 mmHg 47%
    10:00 +11°C° 0 mm 3 mps 764 mmHg 41%
    11:00 +12°C° 0 mm 3 mps 764 mmHg 38%
    12:00 +14°C° 0 mm 3 mps 763 mmHg 35%
    13:00 +16°C° 0 mm 3 mps 763 mmHg 32%
    14:00 +16°C° 0 mm 3 mps 763 mmHg 36%
    15:00 +15°C° 0 mm 2 mps 762 mmHg 39%
    16:00 +15°C° 0 mm 2 mps 762 mmHg 42%
    17:00 +13°C° 0 mm 2 mps 762 mmHg 44%
    18:00 +12°C° 0 mm 2 mps 762 mmHg 45%
    19:00 +10°C° 0 mm 2 mps 762 mmHg 47%
    20:00 +10°C° 0 mm 3 mps 762 mmHg 49%
    21:00 +9°C° 0 mm 3 mps 761 mmHg 51%
    22:00 +9°C° 0 mm 3 mps 761 mmHg 53%
    23:00 +8°C° 0 mm 3 mps 761 mmHg 56%

    27 February, Wednesday

    Time Temperature Precipitation Wind Pressure Humidity
    00:00 +8°C° 0 mm 3 mps 761 mmHg 59%
    01:00 +8°C° 0 mm 3 mps 760 mmHg 62%
    02:00 +8°C° 0 mm 3 mps 760 mmHg 65%
    03:00 +8°C° 0 mm 3 mps 760 mmHg 68%
    04:00 +8°C° 0 mm 3 mps 759 mmHg 71%
    05:00 +7°C° 0 mm 3 mps 759 mmHg 73%
    06:00 +7°C° 0 mm 3 mps 759 mmHg 75%
    07:00 +7°C° 0 mm 2 mps 759 mmHg 76%
    08:00 +9°C° 0 mm 3 mps 760 mmHg 67%
    09:00 +10°C° 0 mm 3 mps 760 mmHg 58%
    10:00 +12°C° 0 mm 3 mps 760 mmHg 48%
    11:00 +13°C° 0 mm 3 mps 760 mmHg 43%
    12:00 +13°C° 0 mm 3 mps 760 mmHg 38%
    13:00 +14°C° 0 mm 3 mps 759 mmHg 32%
    14:00 +14°C° 0 mm 3 mps 759 mmHg 33%
    15:00 +13°C° 0 mm 3 mps 759 mmHg 33%
    16:00 +13°C° 0 mm 3 mps 759 mmHg 34%
    17:00 +11°C° 0 mm 3 mps 759 mmHg 39%
    18:00 +10°C° 0 mm 2 mps 759 mmHg 44%
    19:00 +8°C° 0 mm 2 mps 760 mmHg 49%
    20:00 +8°C° 0 mm 2 mps 760 mmHg 53%
    21:00 +7°C° 0 mm 2 mps 760 mmHg 56%
    22:00 +7°C° 0 mm 2 mps 760 mmHg 59%
    23:00 +6°C° 0 mm 2 mps 760 mmHg 60%
    Show more